Time,TemperatureF,DewpointF,PressureIn,WindDirection,WindDirectionDegrees,WindSpeedMPH,WindSpeedGustMPH,Humidity,HourlyPrecipIn,Conditions,Clouds,dailyrainin,SoftwareType,DateUTC
2013-02-19 00:00:00,43.3,30.3,30.22,South,180,3.0,-999.0,60,0.00,,,0.18,Wunderground v.1.15,2013-02-19 05:00:00,
2013-02-19 00:05:00,43.3,30.3,30.22,South,180,3.0,-999.0,60,0.00,,,0.18,Wunderground v.1.15,2013-02-19 05:05:00,
2013-02-19 00:10:00,43.3,30.3,30.22,South,180,3.0,-999.0,60,0.00,,,0.18,Wunderground v.1.15,2013-02-19 05:10:00,
2013-02-19 00:15:00,43.3,30.3,30.22,South,180,3.0,-999.0,60,0.00,,,0.18,Wunderground v.1.15,2013-02-19 05:15:00,
2013-02-19 00:20:00,43.3,30.3,30.22,South,180,3.0,-999.0,60,0.00,,,0.18,Wunderground v.1.15,2013-02-19 05:20:00,
2013-02-19 00:25:00,43.3,30.3,30.22,South,180,3.0,-999.0,60,0.00,,,0.18,Wunderground v.1.15,2013-02-19 05:25:00,
2013-02-19 00:30:00,43.3,30.3,30.22,South,180,3.0,-999.0,60,0.00,,,0.18,Wunderground v.1.15,2013-02-19 05:30:00,
2013-02-19 00:35:00,43.3,30.3,30.22,South,180,3.0,-999.0,60,0.00,,,0.18,Wunderground v.1.15,2013-02-19 05:35:00,
2013-02-19 00:40:00,43.3,30.3,30.22,South,180,3.0,-999.0,60,0.00,,,0.18,Wunderground v.1.15,2013-02-19 05:40:00,
2013-02-19 00:45:00,42.8,30.3,30.22,South,180,2.0,-999.0,61,0.00,,,0.18,Wunderground v.1.15,2013-02-19 05:45:00,
2013-02-19 00:50:00,42.8,30.3,30.22,South,180,2.0,-999.0,61,0.00,,,0.18,Wunderground v.1.15,2013-02-19 05:50:00,
2013-02-19 00:55:00,42.8,30.3,30.22,South,180,2.0,-999.0,61,0.00,,,0.18,Wunderground v.1.15,2013-02-19 05:55:00,
2013-02-19 01:00:00,42.8,30.3,30.22,South,180,2.0,-999.0,61,0.00,,,0.18,Wunderground v.1.15,2013-02-19 06:00:00,
2013-02-19 01:05:00,42.8,30.3,30.22,South,180,2.0,-999.0,61,0.00,,,0.18,Wunderground v.1.15,2013-02-19 06:05:00,
2013-02-19 01:10:00,42.8,30.3,30.22,South,180,2.0,-999.0,61,0.00,,,0.18,Wunderground v.1.15,2013-02-19 06:10:00,
2013-02-19 01:15:00,42.1,29.6,30.21,SSW,203,1.0,-999.0,61,0.00,,,0.18,Wunderground v.1.15,2013-02-19 06:15:00,
2013-02-19 01:20:00,42.1,29.6,30.21,SSW,203,1.0,-999.0,61,0.00,,,0.18,Wunderground v.1.15,2013-02-19 06:20:00,
2013-02-19 01:25:00,42.1,29.6,30.21,SSW,203,1.0,-999.0,61,0.00,,,0.18,Wunderground v.1.15,2013-02-19 06:25:00,
2013-02-19 01:30:00,42.1,29.6,30.21,SSW,203,1.0,-999.0,61,0.00,,,0.18,Wunderground v.1.15,2013-02-19 06:30:00,
2013-02-19 01:35:00,42.1,29.6,30.21,SSW,203,1.0,-999.0,61,0.00,,,0.18,Wunderground v.1.15,2013-02-19 06:35:00,
2013-02-19 01:40:00,42.1,29.6,30.21,SSW,203,1.0,-999.0,61,0.00,,,0.18,Wunderground v.1.15,2013-02-19 06:40:00,
2013-02-19 01:45:00,41.8,30.1,30.18,SW,225,1.0,-999.0,63,0.00,,,0.18,Wunderground v.1.15,2013-02-19 06:45:00,
2013-02-19 01:50:00,41.8,30.1,30.18,SW,225,1.0,-999.0,63,0.00,,,0.18,Wunderground v.1.15,2013-02-19 06:50:00,
2013-02-19 01:55:00,41.8,30.1,30.18,SW,225,1.0,-999.0,63,0.00,,,0.18,Wunderground v.1.15,2013-02-19 06:55:00,
2013-02-19 02:00:00,41.8,30.1,30.18,SW,225,1.0,-999.0,63,0.00,,,0.18,Wunderground v.1.15,2013-02-19 07:00:00,
2013-02-19 02:05:00,41.8,30.1,30.18,SW,225,1.0,-999.0,63,0.00,,,0.18,Wunderground v.1.15,2013-02-19 07:05:00,
2013-02-19 02:10:00,41.8,30.1,30.18,SW,225,1.0,-999.0,63,0.00,,,0.18,Wunderground v.1.15,2013-02-19 07:10:00,
2013-02-19 02:15:00,41.6,30.3,30.16,South,180,1.0,-999.0,64,0.00,,,0.18,Wunderground v.1.15,2013-02-19 07:15:00,
2013-02-19 02:20:00,41.6,30.3,30.16,South,180,1.0,-999.0,64,0.00,,,0.18,Wunderground v.1.15,2013-02-19 07:20:00,
2013-02-19 02:25:00,41.6,30.3,30.16,South,180,1.0,-999.0,64,0.00,,,0.18,Wunderground v.1.15,2013-02-19 07:25:00,
2013-02-19 02:30:00,41.6,30.3,30.16,South,180,1.0,-999.0,64,0.00,,,0.18,Wunderground v.1.15,2013-02-19 07:30:00,
2013-02-19 02:35:00,41.6,30.3,30.16,South,180,1.0,-999.0,64,0.00,,,0.18,Wunderground v.1.15,2013-02-19 07:35:00,
2013-02-19 02:40:00,41.6,30.3,30.16,South,180,1.0,-999.0,64,0.00,,,0.18,Wunderground v.1.15,2013-02-19 07:40:00,
2013-02-19 02:45:00,41.5,30.6,30.14,SSW,203,1.0,-999.0,65,0.00,,,0.18,Wunderground v.1.15,2013-02-19 07:45:00,
2013-02-19 02:50:00,41.5,30.6,30.14,SSW,203,1.0,-999.0,65,0.00,,,0.18,Wunderground v.1.15,2013-02-19 07:50:00,
2013-02-19 02:55:00,41.5,30.6,30.14,SSW,203,1.0,-999.0,65,0.00,,,0.18,Wunderground v.1.15,2013-02-19 07:55:00,
2013-02-19 03:00:00,41.5,30.6,30.14,SSW,203,1.0,-999.0,65,0.00,,,0.18,Wunderground v.1.15,2013-02-19 08:00:00,
2013-02-19 03:05:00,41.5,30.6,30.14,SSW,203,1.0,-999.0,65,0.00,,,0.18,Wunderground v.1.15,2013-02-19 08:05:00,
2013-02-19 03:10:00,41.5,30.6,30.14,SSW,203,1.0,-999.0,65,0.00,,,0.18,Wunderground v.1.15,2013-02-19 08:10:00,
2013-02-19 03:15:00,41.1,30.6,30.15,SSW,203,1.0,-999.0,66,0.00,,,0.18,Wunderground v.1.15,2013-02-19 08:15:00,
2013-02-19 03:20:00,41.1,30.6,30.15,SSW,203,1.0,-999.0,66,0.00,,,0.18,Wunderground v.1.15,2013-02-19 08:20:00,
2013-02-19 03:25:00,41.1,30.6,30.15,SSW,203,1.0,-999.0,66,0.00,,,0.18,Wunderground v.1.15,2013-02-19 08:25:00,
2013-02-19 03:30:00,41.1,30.6,30.15,SSW,203,1.0,-999.0,66,0.00,,,0.18,Wunderground v.1.15,2013-02-19 08:30:00,
2013-02-19 03:35:00,41.1,30.6,30.15,SSW,203,1.0,-999.0,66,0.00,,,0.18,Wunderground v.1.15,2013-02-19 08:35:00,
2013-02-19 03:40:00,41.1,30.6,30.15,SSW,203,1.0,-999.0,66,0.00,,,0.18,Wunderground v.1.15,2013-02-19 08:40:00,
2013-02-19 03:45:00,40.7,30.2,30.13,West,270,0.0,-999.0,66,0.00,,,0.18,Wunderground v.1.15,2013-02-19 08:45:00,
2013-02-19 03:50:00,40.7,30.2,30.13,West,270,0.0,-999.0,66,0.00,,,0.18,Wunderground v.1.15,2013-02-19 08:50:00,
2013-02-19 03:55:00,40.7,30.2,30.13,West,270,0.0,-999.0,66,0.00,,,0.18,Wunderground v.1.15,2013-02-19 08:55:00,
2013-02-19 04:00:00,40.7,30.2,30.13,West,270,0.0,-999.0,66,0.00,,,0.18,Wunderground v.1.15,2013-02-19 09:00:00,
2013-02-19 04:05:00,40.7,30.2,30.13,West,270,0.0,-999.0,66,0.00,,,0.18,Wunderground v.1.15,2013-02-19 09:05:00,
2013-02-19 04:10:00,40.7,30.2,30.13,West,270,0.0,-999.0,66,0.00,,,0.18,Wunderground v.1.15,2013-02-19 09:10:00,
2013-02-19 04:15:00,41.3,31.5,30.12,SSW,203,1.0,-999.0,68,0.00,,,0.18,Wunderground v.1.15,2013-02-19 09:15:00,
2013-02-19 04:20:00,41.3,31.5,30.12,SSW,203,1.0,-999.0,68,0.00,,,0.18,Wunderground v.1.15,2013-02-19 09:20:00,
2013-02-19 04:25:00,41.3,31.5,30.12,SSW,203,1.0,-999.0,68,0.00,,,0.18,Wunderground v.1.15,2013-02-19 09:25:00,
2013-02-19 04:30:00,41.3,31.5,30.12,SSW,203,1.0,-999.0,68,0.00,,,0.18,Wunderground v.1.15,2013-02-19 09:30:00,
2013-02-19 04:35:00,41.3,31.5,30.12,SSW,203,1.0,-999.0,68,0.00,,,0.18,Wunderground v.1.15,2013-02-19 09:35:00,
2013-02-19 04:40:00,41.3,31.5,30.12,SSW,203,1.0,-999.0,68,0.00,,,0.18,Wunderground v.1.15,2013-02-19 09:40:00,
2013-02-19 04:45:00,41.1,31.0,30.12,SW,225,2.0,-999.0,67,0.00,,,0.18,Wunderground v.1.15,2013-02-19 09:45:00,
2013-02-19 04:50:00,41.1,31.0,30.12,SW,225,2.0,-999.0,67,0.00,,,0.18,Wunderground v.1.15,2013-02-19 09:50:00,
2013-02-19 04:55:00,41.1,31.0,30.12,SW,225,2.0,-999.0,67,0.00,,,0.18,Wunderground v.1.15,2013-02-19 09:55:00,
2013-02-19 05:00:00,41.1,31.0,30.12,SW,225,2.0,-999.0,67,0.00,,,0.18,Wunderground v.1.15,2013-02-19 10:00:00,
2013-02-19 05:05:00,41.1,31.0,30.12,SW,225,2.0,-999.0,67,0.00,,,0.18,Wunderground v.1.15,2013-02-19 10:05:00,
2013-02-19 05:10:00,41.1,31.0,30.12,SW,225,2.0,-999.0,67,0.00,,,0.18,Wunderground v.1.15,2013-02-19 10:10:00,
2013-02-19 05:15:00,40.4,31.0,30.11,WSW,248,2.0,-999.0,69,0.00,,,0.18,Wunderground v.1.15,2013-02-19 10:15:00,
2013-02-19 05:20:00,40.4,31.0,30.11,WSW,248,2.0,-999.0,69,0.00,,,0.18,Wunderground v.1.15,2013-02-19 10:20:00,
2013-02-19 05:25:00,40.4,31.0,30.11,WSW,248,2.0,-999.0,69,0.00,,,0.18,Wunderground v.1.15,2013-02-19 10:25:00,
2013-02-19 05:30:00,40.4,31.0,30.11,WSW,248,2.0,-999.0,69,0.00,,,0.18,Wunderground v.1.15,2013-02-19 10:30:00,
2013-02-19 05:35:00,40.4,31.0,30.11,WSW,248,2.0,-999.0,69,0.00,,,0.18,Wunderground v.1.15,2013-02-19 10:35:00,
2013-02-19 05:40:00,40.4,31.0,30.11,WSW,248,2.0,-999.0,69,0.00,,,0.18,Wunderground v.1.15,2013-02-19 10:40:00,
2013-02-19 05:45:00,40.7,31.7,30.11,WSW,248,2.0,-999.0,70,0.00,,,0.18,Wunderground v.1.15,2013-02-19 10:45:00,
2013-02-19 05:50:00,40.7,31.7,30.11,WSW,248,2.0,-999.0,70,0.00,,,0.18,Wunderground v.1.15,2013-02-19 10:50:00,
2013-02-19 05:55:00,40.7,31.7,30.11,WSW,248,2.0,-999.0,70,0.00,,,0.18,Wunderground v.1.15,2013-02-19 10:55:00,
2013-02-19 06:00:00,40.7,31.7,30.11,WSW,248,2.0,-999.0,70,0.00,,,0.18,Wunderground v.1.15,2013-02-19 11:00:00,
2013-02-19 06:05:00,40.7,31.7,30.11,WSW,248,2.0,-999.0,70,0.00,,,0.18,Wunderground v.1.15,2013-02-19 11:05:00,
2013-02-19 06:10:00,40.7,31.7,30.11,WSW,248,2.0,-999.0,70,0.00,,,0.18,Wunderground v.1.15,2013-02-19 11:10:00,
2013-02-19 06:15:00,41.0,32.3,30.11,WSW,248,1.0,-999.0,71,0.00,,,0.18,Wunderground v.1.15,2013-02-19 11:15:00,
2013-02-19 06:20:00,41.0,32.3,30.11,WSW,248,1.0,-999.0,71,0.00,,,0.18,Wunderground v.1.15,2013-02-19 11:20:00,
2013-02-19 06:25:00,41.0,32.3,30.11,WSW,248,1.0,-999.0,71,0.00,,,0.18,Wunderground v.1.15,2013-02-19 11:25:00,
2013-02-19 06:30:00,41.0,32.3,30.11,WSW,248,1.0,-999.0,71,0.00,,,0.18,Wunderground v.1.15,2013-02-19 11:30:00,
2013-02-19 06:35:00,41.0,32.3,30.11,WSW,248,1.0,-999.0,71,0.00,,,0.18,Wunderground v.1.15,2013-02-19 11:35:00,
2013-02-19 06:40:00,41.0,32.3,30.11,WSW,248,1.0,-999.0,71,0.00,,,0.18,Wunderground v.1.15,2013-02-19 11:40:00,
2013-02-19 06:45:00,40.6,31.2,30.11,WSW,248,3.0,-999.0,69,0.00,,,0.18,Wunderground v.1.15,2013-02-19 11:45:00,
2013-02-19 06:50:00,40.6,31.2,30.11,WSW,248,3.0,-999.0,69,0.00,,,0.18,Wunderground v.1.15,2013-02-19 11:50:00,
2013-02-19 06:55:00,40.6,31.2,30.11,WSW,248,3.0,-999.0,69,0.00,,,0.18,Wunderground v.1.15,2013-02-19 11:55:00,
2013-02-19 07:00:00,40.6,31.2,30.11,WSW,248,3.0,-999.0,69,0.00,,,0.18,Wunderground v.1.15,2013-02-19 12:00:00,
2013-02-19 07:05:00,40.6,31.2,30.11,WSW,248,3.0,-999.0,69,0.00,,,0.18,Wunderground v.1.15,2013-02-19 12:05:00,
2013-02-19 07:10:00,40.6,31.2,30.11,WSW,248,3.0,-999.0,69,0.00,,,0.18,Wunderground v.1.15,2013-02-19 12:10:00,
2013-02-19 07:15:00,39.4,33.1,30.11,WSW,248,2.0,-999.0,78,0.02,,,0.18,Wunderground v.1.15,2013-02-19 12:15:00,
2013-02-19 07:20:00,39.4,33.1,30.11,WSW,248,2.0,-999.0,78,0.02,,,0.18,Wunderground v.1.15,2013-02-19 12:20:00,
2013-02-19 07:25:00,39.4,33.1,30.11,WSW,248,2.0,-999.0,78,0.02,,,0.18,Wunderground v.1.15,2013-02-19 12:25:00,
2013-02-19 07:30:00,39.4,33.1,30.11,WSW,248,2.0,-999.0,78,0.02,,,0.18,Wunderground v.1.15,2013-02-19 12:30:00,
2013-02-19 07:35:00,39.4,33.1,30.11,WSW,248,2.0,-999.0,78,0.02,,,0.18,Wunderground v.1.15,2013-02-19 12:35:00,
2013-02-19 07:40:00,39.4,33.1,30.11,WSW,248,2.0,-999.0,78,0.02,,,0.18,Wunderground v.1.15,2013-02-19 12:40:00,
2013-02-19 07:45:00,38.2,33.8,30.09,WSW,248,1.0,-999.0,84,0.07,,,0.18,Wunderground v.1.15,2013-02-19 12:45:00,
2013-02-19 07:50:00,38.2,33.8,30.09,WSW,248,1.0,-999.0,84,0.07,,,0.18,Wunderground v.1.15,2013-02-19 12:50:00,
2013-02-19 07:55:00,38.2,33.8,30.09,WSW,248,1.0,-999.0,84,0.07,,,0.18,Wunderground v.1.15,2013-02-19 12:55:00,
2013-02-19 08:00:00,38.2,33.8,30.09,WSW,248,1.0,-999.0,84,0.07,,,0.18,Wunderground v.1.15,2013-02-19 13:00:00,
2013-02-19 08:05:00,38.2,33.8,30.09,WSW,248,1.0,-999.0,84,0.07,,,0.18,Wunderground v.1.15,2013-02-19 13:05:00,
2013-02-19 08:10:00,38.2,33.8,30.09,WSW,248,1.0,-999.0,84,0.07,,,0.18,Wunderground v.1.15,2013-02-19 13:10:00,
2013-02-19 08:15:00,38.3,35.1,30.10,SW,225,1.0,-999.0,88,0.11,,,0.18,Wunderground v.1.15,2013-02-19 13:15:00,
2013-02-19 08:20:00,38.3,35.1,30.10,SW,225,1.0,-999.0,88,0.11,,,0.18,Wunderground v.1.15,2013-02-19 13:20:00,
2013-02-19 08:25:00,38.3,35.1,30.10,SW,225,1.0,-999.0,88,0.11,,,0.18,Wunderground v.1.15,2013-02-19 13:25:00,
2013-02-19 08:30:00,38.3,35.1,30.10,SW,225,1.0,-999.0,88,0.11,,,0.18,Wunderground v.1.15,2013-02-19 13:30:00,
2013-02-19 08:35:00,38.3,35.1,30.10,SW,225,1.0,-999.0,88,0.11,,,0.18,Wunderground v.1.15,2013-02-19 13:35:00,
2013-02-19 08:40:00,38.3,35.1,30.10,SW,225,1.0,-999.0,88,0.11,,,0.18,Wunderground v.1.15,2013-02-19 13:40:00,
2013-02-19 08:45:00,38.1,35.4,30.08,WSW,248,1.0,-999.0,90,0.10,,,0.18,Wunderground v.1.15,2013-02-19 13:45:00,
2013-02-19 08:50:00,38.1,35.4,30.08,WSW,248,1.0,-999.0,90,0.10,,,0.18,Wunderground v.1.15,2013-02-19 13:50:00,
2013-02-19 08:55:00,38.1,35.4,30.08,WSW,248,1.0,-999.0,90,0.10,,,0.18,Wunderground v.1.15,2013-02-19 13:55:00,
2013-02-19 09:00:00,38.1,35.4,30.08,WSW,248,1.0,-999.0,90,0.10,,,0.18,Wunderground v.1.15,2013-02-19 14:00:00,
2013-02-19 09:05:00,38.1,35.4,30.08,WSW,248,1.0,-999.0,90,0.10,,,0.18,Wunderground v.1.15,2013-02-19 14:05:00,
2013-02-19 09:10:00,38.1,35.4,30.08,WSW,248,1.0,-999.0,90,0.10,,,0.18,Wunderground v.1.15,2013-02-19 14:10:00,
2013-02-19 09:15:00,39.2,37.1,30.06,South,180,1.0,-999.0,92,0.05,,,0.18,Wunderground v.1.15,2013-02-19 14:15:00,
2013-02-19 09:20:00,39.2,37.1,30.06,South,180,1.0,-999.0,92,0.05,,,0.18,Wunderground v.1.15,2013-02-19 14:20:00,
2013-02-19 09:25:00,39.2,37.1,30.06,South,180,1.0,-999.0,92,0.05,,,0.18,Wunderground v.1.15,2013-02-19 14:25:00,
2013-02-19 09:30:00,39.2,37.1,30.06,South,180,1.0,-999.0,92,0.05,,,0.18,Wunderground v.1.15,2013-02-19 14:30:00,
2013-02-19 09:45:00,39.7,37.6,30.05,SSW,198,1.0,2.0,92,0.00,,,0.18,Wunderground v.1.15,2013-02-19 14:45:00,
2013-02-19 09:55:00,39.8,37.7,30.04,SSW,198,2.0,2.0,92,0.00,,,0.18,Wunderground v.1.15,2013-02-19 14:55:00,
2013-02-19 10:00:00,39.8,37.7,30.04,South,189,2.0,2.0,92,0.00,,,0.18,Wunderground v.1.15,2013-02-19 15:00:00,
2013-02-19 10:05:00,40.0,37.9,30.03,SW,226,2.0,3.0,92,0.00,,,0.18,Wunderground v.1.15,2013-02-19 15:05:00,
2013-02-19 10:10:00,40.1,38.0,30.03,SSW,195,2.0,2.0,92,0.00,,,0.18,Wunderground v.1.15,2013-02-19 15:10:00,
2013-02-19 10:15:00,40.2,38.1,30.03,South,178,2.0,2.0,92,0.00,,,0.18,Wunderground v.1.15,2013-02-19 15:15:00,
2013-02-19 10:20:00,40.3,38.2,30.03,South,180,1.0,2.0,92,0.00,,,0.18,Wunderground v.1.15,2013-02-19 15:20:00,
2013-02-19 10:25:00,40.2,38.1,30.03,South,191,2.0,2.0,92,0.00,,,0.18,Wunderground v.1.15,2013-02-19 15:25:00,
2013-02-19 10:30:00,40.2,38.1,30.03,SSW,213,2.0,3.0,92,0.00,,,0.18,Wunderground v.1.15,2013-02-19 15:30:00,
2013-02-19 10:35:00,40.2,38.1,30.03,South,171,3.0,6.0,92,0.00,,,0.18,Wunderground v.1.15,2013-02-19 15:35:00,
2013-02-19 10:40:00,40.1,38.0,30.03,WSW,243,3.0,6.0,92,0.00,,,0.19,Wunderground v.1.15,2013-02-19 15:40:00,
2013-02-19 10:45:00,40.2,38.3,30.02,SW,229,2.0,6.0,93,0.00,,,0.19,Wunderground v.1.15,2013-02-19 15:45:00,
2013-02-19 10:50:00,40.4,38.5,30.02,SSE,163,2.0,6.0,93,0.00,,,0.19,Wunderground v.1.15,2013-02-19 15:50:00,
2013-02-19 10:55:00,40.5,38.6,30.02,South,170,2.0,6.0,93,0.00,,,0.19,Wunderground v.1.15,2013-02-19 15:55:00,
2013-02-19 11:00:00,40.5,38.6,30.02,South,185,2.0,6.0,93,0.00,,,0.19,Wunderground v.1.15,2013-02-19 16:00:00,
2013-02-19 11:05:00,40.5,38.6,30.02,South,176,3.0,6.0,93,0.00,,,0.19,Wunderground v.1.15,2013-02-19 16:05:00,
2013-02-19 11:10:00,40.6,38.7,30.02,South,189,2.0,6.0,93,0.00,,,0.19,Wunderground v.1.15,2013-02-19 16:10:00,
2013-02-19 11:15:00,40.7,38.8,30.01,South,171,2.0,6.0,93,0.00,,,0.19,Wunderground v.1.15,2013-02-19 16:15:00,
2013-02-19 11:20:00,40.9,39.3,30.01,South,175,2.0,6.0,94,0.00,,,0.19,Wunderground v.1.15,2013-02-19 16:20:00,
2013-02-19 11:25:00,41.1,39.5,30.01,South,184,2.0,6.0,94,0.00,,,0.19,Wunderground v.1.15,2013-02-19 16:25:00,
2013-02-19 11:30:00,41.1,39.5,30.01,South,182,2.0,6.0,94,0.00,,,0.19,Wunderground v.1.15,2013-02-19 16:30:00,
2013-02-19 11:35:00,41.4,39.8,30.00,WSW,255,2.0,6.0,94,0.00,,,0.19,Wunderground v.1.15,2013-02-19 16:35:00,
2013-02-19 11:40:00,41.4,39.8,30.00,SSE,167,2.0,2.0,94,0.00,,,0.19,Wunderground v.1.15,2013-02-19 16:40:00,
2013-02-19 11:45:00,41.6,40.0,30.00,SSW,207,3.0,3.0,94,0.00,,,0.19,Wunderground v.1.15,2013-02-19 16:45:00,
2013-02-19 11:50:00,41.8,40.2,30.00,South,190,2.0,6.0,94,0.00,,,0.19,Wunderground v.1.15,2013-02-19 16:50:00,
2013-02-19 11:55:00,42.2,40.6,29.99,South,191,2.0,6.0,94,0.00,,,0.19,Wunderground v.1.15,2013-02-19 16:55:00,
2013-02-19 12:05:00,42.6,41.0,29.98,SSW,197,2.0,6.0,94,0.00,,,0.19,Wunderground v.1.15,2013-02-19 17:05:00,
2013-02-19 12:10:00,42.7,41.1,29.98,SSE,163,2.0,6.0,94,0.00,,,0.19,Wunderground v.1.15,2013-02-19 17:10:00,
2013-02-19 12:15:00,42.8,41.2,29.98,South,182,3.0,6.0,94,0.00,,,0.19,Wunderground v.1.15,2013-02-19 17:15:00,
2013-02-19 12:20:00,43.1,41.5,29.97,South,174,3.0,6.0,94,0.00,,,0.19,Wunderground v.1.15,2013-02-19 17:20:00,
2013-02-19 12:25:00,43.3,41.4,29.97,WSW,240,3.0,6.0,93,0.00,,,0.19,Wunderground v.1.15,2013-02-19 17:25:00,
2013-02-19 12:30:00,43.3,41.4,29.97,South,171,3.0,3.0,93,0.00,,,0.19,Wunderground v.1.15,2013-02-19 17:30:00,
2013-02-19 12:35:00,43.3,41.4,29.97,WSW,249,3.0,6.0,93,0.00,,,0.19,Wunderground v.1.15,2013-02-19 17:35:00,
2013-02-19 12:40:00,43.4,41.5,29.96,South,187,2.0,6.0,93,0.00,,,0.19,Wunderground v.1.15,2013-02-19 17:40:00,
2013-02-19 12:45:00,43.5,41.6,29.96,WSW,238,3.0,6.0,93,0.00,,,0.19,Wunderground v.1.15,2013-02-19 17:45:00,
2013-02-19 12:50:00,43.7,41.8,29.95,West,262,3.0,6.0,93,0.00,,,0.19,Wunderground v.1.15,2013-02-19 17:50:00,
2013-02-19 12:55:00,43.8,41.9,29.95,South,188,3.0,6.0,93,0.00,,,0.19,Wunderground v.1.15,2013-02-19 17:55:00,
2013-02-19 13:00:00,44.0,42.1,29.94,South,170,2.0,6.0,93,0.00,,,0.19,Wunderground v.1.15,2013-02-19 18:00:00,
2013-02-19 13:05:00,44.2,42.3,29.94,WSW,238,3.0,6.0,93,0.00,,,0.19,Wunderground v.1.15,2013-02-19 18:05:00,
2013-02-19 13:10:00,44.4,42.5,29.94,SSW,213,3.0,6.0,93,0.00,,,0.19,Wunderground v.1.15,2013-02-19 18:10:00,
2013-02-19 13:15:00,44.7,42.5,29.93,SSE,168,3.0,6.0,92,0.00,,,0.19,Wunderground v.1.15,2013-02-19 18:15:00,
2013-02-19 13:20:00,44.9,42.7,29.93,SW,229,4.0,7.0,92,0.00,,,0.19,Wunderground v.1.15,2013-02-19 18:20:00,
2013-02-19 13:25:00,45.2,43.0,29.93,SSE,168,4.0,7.0,92,0.00,,,0.19,Wunderground v.1.15,2013-02-19 18:25:00,
2013-02-19 13:30:00,45.4,43.2,29.93,WSW,243,4.0,10.0,92,0.00,,,0.19,Wunderground v.1.15,2013-02-19 18:30:00,
2013-02-19 13:35:00,45.3,42.8,29.92,WSW,247,4.0,10.0,91,0.00,,,0.19,Wunderground v.1.15,2013-02-19 18:35:00,
2013-02-19 13:40:00,45.4,42.9,29.93,South,174,4.0,4.0,91,0.00,,,0.19,Wunderground v.1.15,2013-02-19 18:40:00,
2013-02-19 13:45:00,45.6,43.1,29.93,WSW,237,3.0,6.0,91,0.00,,,0.19,Wunderground v.1.15,2013-02-19 18:45:00,
2013-02-19 13:50:00,45.7,43.2,29.92,South,178,3.0,3.0,91,0.00,,,0.19,Wunderground v.1.15,2013-02-19 18:50:00,
2013-02-19 13:55:00,45.8,43.3,29.92,SW,234,4.0,4.0,91,0.00,,,0.19,Wunderground v.1.15,2013-02-19 18:55:00,
2013-02-19 14:00:00,45.9,43.1,29.92,SSE,155,5.0,5.0,90,0.00,,,0.19,Wunderground v.1.15,2013-02-19 19:00:00,
2013-02-19 14:05:00,45.9,43.1,29.92,WSW,253,5.0,6.0,90,0.00,,,0.19,Wunderground v.1.15,2013-02-19 19:05:00,
2013-02-19 14:15:00,46.1,43.0,29.92,WSW,241,5.0,6.0,89,0.00,,,0.19,Wunderground v.1.15,2013-02-19 19:15:00,
2013-02-19 14:20:00,46.2,43.1,29.91,SSE,165,5.0,5.0,89,0.00,,,0.19,Wunderground v.1.15,2013-02-19 19:20:00,
2013-02-19 14:25:00,46.3,43.2,29.91,South,187,4.0,6.0,89,0.00,,,0.19,Wunderground v.1.15,2013-02-19 19:25:00,
2013-02-19 14:30:00,46.2,43.1,29.91,WSW,240,3.0,6.0,89,0.00,,,0.19,Wunderground v.1.15,2013-02-19 19:30:00,
2013-02-19 14:35:00,46.1,43.0,29.91,SSW,192,3.0,6.0,89,0.00,,,0.19,Wunderground v.1.15,2013-02-19 19:35:00,
2013-02-19 14:40:00,46.1,43.0,29.91,SSE,153,3.0,7.0,89,0.00,,,0.19,Wunderground v.1.15,2013-02-19 19:40:00,
2013-02-19 14:45:00,46.2,43.1,29.90,SW,219,3.0,7.0,89,0.00,,,0.19,Wunderground v.1.15,2013-02-19 19:45:00,
2013-02-19 14:55:00,46.4,43.3,29.90,WSW,243,4.0,8.0,89,0.00,,,0.19,Wunderground v.1.15,2013-02-19 19:55:00,
2013-02-19 15:00:00,46.4,43.3,29.90,SSW,198,3.0,3.0,89,0.00,,,0.19,Wunderground v.1.15,2013-02-19 20:00:00,
2013-02-19 15:05:00,46.2,42.8,29.90,South,180,4.0,4.0,88,0.00,,,0.19,Wunderground v.1.15,2013-02-19 20:05:00,
2013-02-19 15:10:00,46.1,42.7,29.90,WSW,247,4.0,6.0,88,0.00,,,0.19,Wunderground v.1.15,2013-02-19 20:10:00,
2013-02-19 15:15:00,46.0,42.9,29.90,South,171,4.0,6.0,89,0.00,,,0.19,Wunderground v.1.15,2013-02-19 20:15:00,
2013-02-19 15:20:00,46.0,42.9,29.90,SW,234,4.0,6.0,89,0.00,,,0.19,Wunderground v.1.15,2013-02-19 20:20:00,
2013-02-19 15:25:00,46.0,42.9,29.90,South,174,4.0,6.0,89,0.00,,,0.19,Wunderground v.1.15,2013-02-19 20:25:00,
2013-02-19 15:30:00,46.0,42.6,29.90,South,182,3.0,3.0,88,0.00,,,0.19,Wunderground v.1.15,2013-02-19 20:30:00,
2013-02-19 15:35:00,46.1,43.0,29.90,SW,234,4.0,5.0,89,0.00,,,0.19,Wunderground v.1.15,2013-02-19 20:35:00,
2013-02-19 15:40:00,46.1,43.0,29.89,SSW,203,4.0,4.0,89,0.00,,,0.19,Wunderground v.1.15,2013-02-19 20:40:00,
2013-02-19 15:45:00,46.2,43.1,29.90,SW,232,3.0,5.0,89,0.00,,,0.19,Wunderground v.1.15,2013-02-19 20:45:00,
2013-02-19 15:50:00,46.2,42.8,29.90,WSW,248,4.0,6.0,88,0.00,,,0.19,Wunderground v.1.15,2013-02-19 20:50:00,
2013-02-19 15:55:00,46.2,42.8,29.90,West,267,5.0,6.0,88,0.00,,,0.19,Wunderground v.1.15,2013-02-19 20:55:00,
2013-02-19 16:00:00,46.4,43.0,29.89,WSW,240,5.0,6.0,88,0.00,,,0.19,Wunderground v.1.15,2013-02-19 21:00:00,
2013-02-19 16:05:00,46.4,43.0,29.89,WSW,252,5.0,6.0,88,0.00,,,0.19,Wunderground v.1.15,2013-02-19 21:05:00,
2013-02-19 16:10:00,46.5,43.1,29.89,SW,215,4.0,4.0,88,0.00,,,0.19,Wunderground v.1.15,2013-02-19 21:10:00,
2013-02-19 16:15:00,46.6,43.2,29.89,WSW,257,4.0,6.0,88,0.00,,,0.19,Wunderground v.1.15,2013-02-19 21:15:00,
2013-02-19 16:20:00,46.7,43.3,29.89,South,174,4.0,4.0,88,0.00,,,0.19,Wunderground v.1.15,2013-02-19 21:20:00,
2013-02-19 16:25:00,46.7,43.3,29.89,WSW,245,2.0,6.0,88,0.00,,,0.19,Wunderground v.1.15,2013-02-19 21:25:00,
2013-02-19 16:30:00,46.7,43.3,29.89,WSW,256,2.0,6.0,88,0.00,,,0.19,Wunderground v.1.15,2013-02-19 21:30:00,
2013-02-19 16:35:00,46.8,43.1,29.90,WSW,249,3.0,6.0,87,0.00,,,0.19,Wunderground v.1.15,2013-02-19 21:35:00,
2013-02-19 16:40:00,46.9,43.2,29.90,WSW,248,3.0,6.0,87,0.00,,,0.19,Wunderground v.1.15,2013-02-19 21:40:00,
2013-02-19 16:45:00,47.0,43.3,29.90,WSW,248,3.0,6.0,87,0.00,,,0.19,Wunderground v.1.15,2013-02-19 21:45:00,
2013-02-19 16:50:00,47.1,43.4,29.90,SW,227,3.0,3.0,87,0.00,,,0.19,Wunderground v.1.15,2013-02-19 21:50:00,
2013-02-19 16:55:00,47.2,43.5,29.90,WSW,238,1.0,6.0,87,0.00,,,0.19,Wunderground v.1.15,2013-02-19 21:55:00,
2013-02-19 17:00:00,47.3,43.6,29.90,WSW,252,1.0,6.0,87,0.00,,,0.19,Wunderground v.1.15,2013-02-19 22:00:00,
2013-02-19 17:05:00,47.5,43.8,29.90,SSW,193,2.0,6.0,87,0.00,,,0.19,Wunderground v.1.15,2013-02-19 22:05:00,
2013-02-19 17:10:00,47.6,43.9,29.90,South,173,1.0,1.0,87,0.00,,,0.19,Wunderground v.1.15,2013-02-19 22:10:00,
2013-02-19 17:15:00,47.4,43.7,29.90,South,185,1.0,1.0,87,0.00,,,0.19,Wunderground v.1.15,2013-02-19 22:15:00,
2013-02-19 17:25:00,47.4,43.7,29.90,South,191,1.0,2.0,87,0.00,,,0.19,Wunderground v.1.15,2013-02-19 22:25:00,
2013-02-19 17:30:00,47.7,44.0,29.90,SSW,204,1.0,1.0,87,0.00,,,0.19,Wunderground v.1.15,2013-02-19 22:30:00,
2013-02-19 17:35:00,48.0,44.0,29.90,South,184,1.0,1.0,86,0.00,,,0.19,Wunderground v.1.15,2013-02-19 22:35:00,
2013-02-19 17:40:00,47.8,43.8,29.90,SW,219,1.0,1.0,86,0.00,,,0.19,Wunderground v.1.15,2013-02-19 22:40:00,
2013-02-19 17:45:00,47.6,43.6,29.90,South,186,1.0,1.0,86,0.00,,,0.19,Wunderground v.1.15,2013-02-19 22:45:00,
2013-02-19 17:50:00,47.5,43.5,29.91,SW,219,1.0,2.0,86,0.00,,,0.19,Wunderground v.1.15,2013-02-19 22:50:00,
2013-02-19 17:55:00,47.4,43.7,29.91,SE,146,1.0,2.0,87,0.00,,,0.19,Wunderground v.1.15,2013-02-19 22:55:00,
2013-02-19 18:00:00,47.2,43.5,29.91,South,174,0.0,0.0,87,0.00,,,0.19,Wunderground v.1.15,2013-02-19 23:00:00,
2013-02-19 18:05:00,47.0,43.3,29.91,South,173,0.0,8.0,87,0.00,,,0.19,Wunderground v.1.15,2013-02-19 23:05:00,
2013-02-19 18:10:00,46.9,43.2,29.92,SSW,201,0.0,8.0,87,0.00,,,0.19,Wunderground v.1.15,2013-02-19 23:10:00,
2013-02-19 18:15:00,46.8,43.1,29.92,SW,225,1.0,8.0,87,0.00,,,0.19,Wunderground v.1.15,2013-02-19 23:15:00,
2013-02-19 18:20:00,46.7,43.0,29.92,WSW,239,1.0,1.0,87,0.00,,,0.19,Wunderground v.1.15,2013-02-19 23:20:00,
2013-02-19 18:25:00,46.7,43.3,29.93,West,278,0.0,8.0,88,0.00,,,0.19,Wunderground v.1.15,2013-02-19 23:25:00,
2013-02-19 18:30:00,46.4,42.7,29.93,West,278,0.0,8.0,87,0.00,,,0.19,Wunderground v.1.15,2013-02-19 23:30:00,
2013-02-19 18:35:00,46.0,42.6,29.93,West,278,0.0,8.0,88,0.00,,,0.19,Wunderground v.1.15,2013-02-19 23:35:00,
2013-02-19 18:40:00,45.5,42.2,29.94,West,278,0.0,8.0,88,0.00,,,0.19,Wunderground v.1.15,2013-02-19 23:40:00,
2013-02-19 18:45:00,45.2,41.9,29.94,West,278,0.0,8.0,88,0.00,,,0.19,Wunderground v.1.15,2013-02-19 23:45:00,
2013-02-19 18:50:00,44.9,41.9,29.94,West,278,0.0,8.0,89,0.00,,,0.19,Wunderground v.1.15,2013-02-19 23:50:00,
2013-02-19 18:55:00,44.6,41.6,29.95,West,278,0.0,8.0,89,0.00,,,0.19,Wunderground v.1.15,2013-02-19 23:55:00,
2013-02-19 19:00:00,44.5,41.7,29.95,West,278,0.0,8.0,90,0.00,,,0.19,Wunderground v.1.15,2013-02-20 00:00:00,
2013-02-19 19:05:00,44.2,41.5,29.95,West,278,0.0,8.0,90,0.00,,,0.19,Wunderground v.1.15,2013-02-20 00:05:00,
2013-02-19 19:10:00,43.8,41.1,29.95,West,278,0.0,8.0,90,0.00,,,0.19,Wunderground v.1.15,2013-02-20 00:10:00,
2013-02-19 19:15:00,43.3,40.6,29.96,West,278,0.0,8.0,90,0.00,,,0.19,Wunderground v.1.15,2013-02-20 00:15:00,
2013-02-19 19:20:00,43.0,40.6,29.96,West,278,1.0,1.0,91,0.00,,,0.19,Wunderground v.1.15,2013-02-20 00:20:00,
2013-02-19 19:25:00,43.1,40.9,29.97,West,278,0.0,8.0,92,0.00,,,0.19,Wunderground v.1.15,2013-02-20 00:25:00,
2013-02-19 19:30:00,42.9,40.5,29.97,West,278,0.0,8.0,91,0.00,,,0.19,Wunderground v.1.15,2013-02-20 00:30:00,
2013-02-19 19:35:00,42.8,40.4,29.97,West,278,0.0,8.0,91,0.00,,,0.19,Wunderground v.1.15,2013-02-20 00:35:00,
2013-02-19 19:40:00,42.6,40.2,29.97,West,278,0.0,8.0,91,0.00,,,0.19,Wunderground v.1.15,2013-02-20 00:40:00,
2013-02-19 19:45:00,42.5,40.3,29.97,West,278,0.0,8.0,92,0.00,,,0.19,Wunderground v.1.15,2013-02-20 00:45:00,
2013-02-19 19:50:00,42.6,40.4,29.97,West,278,0.0,8.0,92,0.00,,,0.19,Wunderground v.1.15,2013-02-20 00:50:00,
2013-02-19 19:55:00,42.5,40.3,29.97,West,278,0.0,8.0,92,0.00,,,0.19,Wunderground v.1.15,2013-02-20 00:55:00,
2013-02-19 20:00:00,42.5,40.3,29.97,West,278,0.0,8.0,92,0.00,,,0.19,Wunderground v.1.15,2013-02-20 01:00:00,
2013-02-19 20:05:00,42.4,40.2,29.97,West,278,0.0,8.0,92,0.00,,,0.19,Wunderground v.1.15,2013-02-20 01:05:00,
2013-02-19 20:10:00,42.3,40.1,29.97,West,278,0.0,8.0,92,0.00,,,0.19,Wunderground v.1.15,2013-02-20 01:10:00,
2013-02-19 20:15:00,42.2,40.0,29.97,West,278,0.0,8.0,92,0.00,,,0.19,Wunderground v.1.15,2013-02-20 01:15:00,
2013-02-19 20:20:00,42.0,39.8,29.97,West,278,0.0,8.0,92,0.00,,,0.19,Wunderground v.1.15,2013-02-20 01:20:00,
2013-02-19 20:25:00,41.9,39.7,29.98,West,278,0.0,8.0,92,0.00,,,0.19,Wunderground v.1.15,2013-02-20 01:25:00,
2013-02-19 20:30:00,41.8,39.6,29.98,West,278,0.0,8.0,92,0.00,,,0.19,Wunderground v.1.15,2013-02-20 01:30:00,
2013-02-19 20:35:00,41.5,38.8,29.98,WSW,255,0.0,8.0,90,0.00,,,0.19,Wunderground v.1.15,2013-02-20 01:35:00,
2013-02-19 20:40:00,41.2,37.9,29.98,WSW,255,0.0,8.0,88,0.00,,,0.19,Wunderground v.1.15,2013-02-20 01:40:00,
2013-02-19 20:45:00,41.0,37.1,29.98,WSW,255,0.0,8.0,86,0.00,,,0.19,Wunderground v.1.15,2013-02-20 01:45:00,
2013-02-19 20:50:00,40.9,36.7,29.98,WSW,255,0.0,8.0,85,0.00,,,0.19,Wunderground v.1.15,2013-02-20 01:50:00,
2013-02-19 20:55:00,40.8,36.3,29.98,WSW,255,0.0,8.0,84,0.00,,,0.19,Wunderground v.1.15,2013-02-20 01:55:00,
2013-02-19 21:00:00,40.6,35.5,29.99,WSW,258,0.0,8.0,82,0.00,,,0.19,Wunderground v.1.15,2013-02-20 02:00:00,
2013-02-19 21:05:00,40.4,35.3,29.99,WSW,258,0.0,8.0,82,0.00,,,0.19,Wunderground v.1.15,2013-02-20 02:05:00,
2013-02-19 21:10:00,40.1,35.0,29.99,WSW,258,0.0,8.0,82,0.00,,,0.19,Wunderground v.1.15,2013-02-20 02:10:00,
2013-02-19 21:15:00,39.8,34.8,29.99,WSW,258,0.0,8.0,82,0.00,,,0.19,Wunderground v.1.15,2013-02-20 02:15:00,
2013-02-19 21:20:00,39.7,34.0,29.99,WSW,241,0.0,8.0,80,0.00,,,0.19,Wunderground v.1.15,2013-02-20 02:20:00,
2013-02-19 21:25:00,39.8,34.1,29.99,SW,235,0.0,8.0,80,0.00,,,0.19,Wunderground v.1.15,2013-02-20 02:25:00,
2013-02-19 21:30:00,40.2,33.2,30.00,South,190,1.0,8.0,76,0.00,,,0.19,Wunderground v.1.15,2013-02-20 02:30:00,
2013-02-19 21:35:00,41.3,32.2,30.00,WSW,253,1.0,8.0,70,0.00,,,0.19,Wunderground v.1.15,2013-02-20 02:35:00,
2013-02-19 21:40:00,42.7,31.4,30.00,WNW,286,2.0,8.0,64,0.00,,,0.19,Wunderground v.1.15,2013-02-20 02:40:00,
2013-02-19 21:45:00,43.5,30.9,30.00,WSW,252,2.0,8.0,61,0.00,,,0.19,Wunderground v.1.15,2013-02-20 02:45:00,
2013-02-19 21:50:00,43.5,30.9,30.00,WSW,249,1.0,8.0,61,0.00,,,0.19,Wunderground v.1.15,2013-02-20 02:50:00,
2013-02-19 21:55:00,43.4,30.4,30.00,WSW,249,0.0,8.0,60,0.00,,,0.19,Wunderground v.1.15,2013-02-20 02:55:00,
2013-02-19 22:00:00,43.3,31.1,30.00,WSW,240,0.0,8.0,62,0.00,,,0.19,Wunderground v.1.15,2013-02-20 03:00:00,
2013-02-19 22:10:00,43.0,30.1,30.00,SW,236,0.0,8.0,60,0.00,,,0.19,Wunderground v.1.15,2013-02-20 03:10:00,
2013-02-19 22:15:00,42.9,30.0,30.01,SSW,208,0.0,8.0,60,0.00,,,0.19,Wunderground v.1.15,2013-02-20 03:15:00,
2013-02-19 22:20:00,43.1,28.9,30.01,SSW,207,0.0,8.0,57,0.00,,,0.19,Wunderground v.1.15,2013-02-20 03:20:00,
2013-02-19 22:25:00,43.1,28.5,30.01,SW,218,1.0,8.0,56,0.00,,,0.19,Wunderground v.1.15,2013-02-20 03:25:00,
2013-02-19 23:00:00,43.7,26.3,30.01,WSW,248,2.0,-999.0,50,0.00,,,0.19,Wunderground v.1.15,2013-02-20 04:00:00,
2013-02-19 23:05:00,43.7,26.3,30.01,WSW,248,2.0,-999.0,50,0.00,,,0.19,Wunderground v.1.15,2013-02-20 04:05:00,
2013-02-19 23:10:00,43.7,26.3,30.01,WSW,248,2.0,-999.0,50,0.00,,,0.19,Wunderground v.1.15,2013-02-20 04:10:00,
2013-02-19 23:15:00,43.6,25.2,30.02,SW,225,2.0,-999.0,48,0.00,,,0.19,Wunderground v.1.15,2013-02-20 04:15:00,
2013-02-19 23:20:00,43.6,25.2,30.02,SW,225,2.0,-999.0,48,0.00,,,0.19,Wunderground v.1.15,2013-02-20 04:20:00,
2013-02-19 23:25:00,43.6,25.2,30.02,SW,225,2.0,-999.0,48,0.00,,,0.19,Wunderground v.1.15,2013-02-20 04:25:00,
2013-02-19 23:30:00,43.6,25.2,30.02,SW,225,2.0,-999.0,48,0.00,,,0.19,Wunderground v.1.15,2013-02-20 04:30:00,
2013-02-19 23:35:00,43.6,25.2,30.02,SW,225,2.0,-999.0,48,0.00,,,0.19,Wunderground v.1.15,2013-02-20 04:35:00,
2013-02-19 23:40:00,43.6,25.2,30.02,SW,225,2.0,-999.0,48,0.00,,,0.19,Wunderground v.1.15,2013-02-20 04:40:00,
2013-02-19 23:45:00,41.9,23.1,30.02,SSE,158,1.0,-999.0,47,0.00,,,0.19,Wunderground v.1.15,2013-02-20 04:45:00,
2013-02-19 23:50:00,41.9,23.1,30.02,SSE,158,1.0,-999.0,47,0.00,,,0.19,Wunderground v.1.15,2013-02-20 04:50:00,
2013-02-19 23:55:00,41.9,23.1,30.02,SSE,158,1.0,-999.0,47,0.00,,,0.19,Wunderground v.1.15,2013-02-20 04:55:00,